Location: Unspecified
(0.0000°N, 0.0000°E)
Time: 09:54:58
(UTC+00:00)

OTV 5 (USA 277) - Visible Passes

Search period start: 21 October 2019 00:00
Search period end: 31 October 2019 00:00
Orbit: 310 x 324 km, 54.5° (Epoch: 17 October)

Date Brightness Start Highest point End Pass type
(mag) Time Alt. Az. Time Alt. Az. Time Alt. Az.
21 Oct ? 18:21:08 10° S 18:23:20 22° ESE 18:24:42 15° E visible
22 Oct ? 18:35:09 10° SW 18:37:48 56° WNW 18:39:54 15° NNE visible
23 Oct ? 18:51:18 10° WNW 18:52:17 11° WNW 18:53:16 10° NW visible
25 Oct ? 04:51:09 10° NNE 04:52:52 15° ENE 04:54:35 10° E visible
26 Oct ? 05:04:39 10° NNW 05:07:20 86° NE 05:10:02 10° SSE visible
28 Oct ? 04:03:33 20° ESE 04:03:33 20° ESE 04:04:41 10° SE visible
29 Oct ? 04:18:32 15° S 04:18:32 15° S 04:19:12 10° SSE visible
